TimePST,TemperatureF,Dew PointF,Humidity,Sea Level PressureIn,VisibilityMPH,Wind Direction,Wind SpeedMPH,Gust SpeedMPH,PrecipitationIn,Events,Conditions,WindDirDegrees,DateUTC
12:53 AM,12.0,7.0,80,30.30,10.0,Calm,Calm,-,N/A,,Clear,0,2013-12-04 08:53:00
1:53 AM,10.0,6.1,84,30.32,10.0,SSW,4.6,-,N/A,,Partly Cloudy,200,2013-12-04 09:53:00
2:53 AM,9.0,3.9,80,30.32,10.0,Calm,Calm,-,N/A,,Clear,0,2013-12-04 10:53:00
3:53 AM,7.0,3.0,84,30.33,10.0,Calm,Calm,-,N/A,,Clear,0,2013-12-04 11:53:00
4:53 AM,10.9,6.1,81,30.33,10.0,WSW,3.5,-,N/A,,Clear,250,2013-12-04 12:53:00
5:53 AM,7.0,3.0,84,30.36,10.0,SSW,6.9,-,N/A,,Clear,200,2013-12-04 13:53:00
6:53 AM,9.0,3.0,77,30.37,10.0,Calm,Calm,-,N/A,,Clear,0,2013-12-04 14:53:00
7:53 AM,7.0,1.9,80,30.38,10.0,SSW,5.8,-,N/A,,Clear,200,2013-12-04 15:53:00
8:53 AM,14.0,8.1,77,30.40,10.0,SW,5.8,-,N/A,,Clear,220,2013-12-04 16:53:00
9:53 AM,19.0,10.9,71,30.41,10.0,Calm,Calm,-,N/A,,Clear,0,2013-12-04 17:53:00
10:53 AM,21.9,10.0,60,30.41,10.0,Calm,Calm,-,N/A,,Clear,0,2013-12-04 18:53:00
11:53 AM,24.1,10.9,57,30.40,10.0,South,4.6,-,N/A,,Clear,180,2013-12-04 19:53:00
12:53 PM,26.1,10.9,53,30.39,10.0,Calm,Calm,-,N/A,,Clear,0,2013-12-04 20:53:00
1:53 PM,25.0,10.9,55,30.39,10.0,East,4.6,-,N/A,,Clear,100,2013-12-04 21:53:00
2:53 PM,25.0,12.0,58,30.39,10.0,SE,4.6,-,N/A,,Clear,130,2013-12-04 22:53:00
3:53 PM,21.9,10.9,63,30.39,10.0,ESE,4.6,-,N/A,,Clear,120,2013-12-04 23:53:00
4:53 PM,14.0,8.1,77,30.39,10.0,SE,5.8,-,N/A,,Clear,130,2013-12-05 00:53:00
5:53 PM,12.9,7.0,77,30.40,10.0,SSE,4.6,-,N/A,,Clear,160,2013-12-05 01:53:00
6:53 PM,8.1,3.9,83,30.41,10.0,SE,4.6,-,N/A,,Clear,140,2013-12-05 02:53:00
7:53 PM,7.0,1.9,80,30.41,10.0,South,4.6,-,N/A,,Clear,170,2013-12-05 03:53:00
8:53 PM,7.0,1.0,77,30.41,10.0,ESE,4.6,-,N/A,,Clear,120,2013-12-05 04:53:00
9:53 PM,6.1,1.0,80,30.41,10.0,SE,3.5,-,N/A,,Clear,130,2013-12-05 05:53:00
10:53 PM,5.0,-0.0,80,30.42,10.0,ESE,4.6,-,N/A,,Clear,120,2013-12-05 06:53:00
11:53 PM,1.9,-2.0,83,30.42,10.0,SSE,3.5,-,N/A,,Clear,150,2013-12-05 07:53:00